EA3DKP Weather Reports


time (UTC)temp
C
wind
direction
speed
KPH
gust
KPH
rain 1hr
cm
rain 24hr
cm
rain mn
cm
humidity
%
barometer
mb
20260510063007 11 5 0.0 0.0 0.00 0.00 0.84 90 1009.3
20260510061553 11 5 0.0 0.0 0.00 0.00 0.84 90 1009.4
20260510060051 11 5 0.0 0.0 0.00 0.00 0.84 90 1009.4
20260510054550 11 5 0.0 0.0 0.00 0.00 0.84 90 1009.4
20260510053050 11 5 0.0 0.0 0.00 0.00 0.84 90 1009.2
20260510051554 11 5 0.0 0.0 0.00 0.00 0.84 90 1009.2
20260510050050 11 5 0.0 0.0 0.00 0.00 0.84 89 1009.1
20260510044547 11 5 0.0 0.0 0.00 0.00 0.84 90 1009.0
20260510043046 11 5 0.0 0.0 0.00 0.00 0.84 89 1009.2
20260510041532 11 5 0.0 0.0 0.00 0.00 0.84 89 1009.0
20260510040035 11 5 0.0 0.0 0.00 0.00 0.84 89 1009.3
20260510034531 11 5 0.0 0.0 0.00 0.00 0.84 89 1009.2
20260510033030 12 5 0.0 0.0 0.00 0.00 0.84 89 1009.3
20260510031528 12 5 0.0 0.0 0.00 0.00 0.84 89 1009.3
20260510030028 12 5 0.0 0.0 0.00 0.00 0.84 89 1009.4
20260510024527 12 5 0.0 0.0 0.00 0.00 0.84 89 1009.4
20260510023027 12 5 0.0 0.0 0.00 0.00 0.84 89 1009.2
20260510021516 12 5 0.0 0.0 0.00 0.00 0.84 89 1009.2
20260510020006 12 5 0.0 0.0 0.00 0.00 0.84 89 1009.3
20260510014548 12 5 0.0 0.0 0.00 0.00 0.84 89 1009.3
20260510013045 13 5 0.0 0.0 0.00 0.00 0.84 89 1009.4
20260510011533 13 5 0.0 0.0 0.00 0.00 0.84 89 1009.6
20260510010031 13 5 0.0 0.0 0.00 0.00 0.84 89 1009.9
20260510004531 13 5 0.0 0.0 0.00 0.00 0.81 89 1010.1
20260510003030 13 5 0.0 0.0 0.00 0.00 0.81 89 1010.3
20260510001529 13 5 0.0 0.0 0.00 0.00 0.81 89 1010.5
20260510000035 13 5 0.0 0.0 0.00 0.00 0.81 89 1010.9
20260509234538 13 5 0.0 0.0 0.00 0.00 0.81 89 1011.1
20260509233028 14 5 0.0 0.0 0.00 0.00 0.81 89 1011.3
20260509231518 14 5 0.0 0.0 0.00 0.00 0.79 88 1011.3
20260509230016 14 5 0.0 0.0 0.00 0.00 0.79 88 1011.4
20260509224528 14 5 0.0 0.0 0.00 0.00 0.79 88 1011.4
20260509223015 14 360 0.0 0.0 0.00 0.00 0.76 88 1011.3
20260509221514 14 360 0.0 0.0 0.00 0.00 0.76 88 1011.4
20260509220013 14 360 0.0 0.0 0.00 0.00 0.71 88 1011.3
20260509214512 14 360 0.0 0.0 0.00 0.00 0.69 88 1011.3
20260509213012 14 360 0.0 0.0 0.00 0.00 0.69 88 1011.3
20260509211559 14 360 0.0 0.0 0.00 0.00 0.64 88 1011.2
20260509210104 14 360 0.0 0.0 0.00 0.00 0.61 88 1011.1
20260509204606 14 5 0.0 0.0 0.00 0.00 0.61 87 1010.7
20260509203110 14 360 0.0 0.0 0.00 0.00 0.61 87 1010.2
20260509201556 15 138 0.0 0.0 0.00 0.00 0.61 87 1009.8
20260509200056 14 360 0.0 0.0 0.00 0.00 0.61 87 1009.2
20260509194555 14 136 0.0 0.0 0.00 0.00 0.61 87 1008.1
20260509193055 14 360 0.0 0.0 0.00 0.00 0.61 87 1007.3
20260509191539 14 360 0.0 0.0 0.00 0.00 0.56 87 1008.8
20260509190039 14 169 0.0 0.0 0.00 0.00 0.51 86 1009.5
20260509184544 14 360 0.0 0.0 0.00 0.00 0.43 86 1009.9
20260509183035 14 360 0.0 0.0 0.00 0.00 0.43 85 1010.6
20260509181531 15 360 0.0 0.0 0.00 0.00 0.38 84 1010.8
20260509180049 15 177 0.0 0.0 0.00 0.00 0.33 83 1010.7
20260509174529 15 360 0.0 0.0 0.00 0.00 0.23 81 1010.4
20260509173022 16 360 0.0 0.0 0.00 0.00 0.15 80 1010.3
20260509171519 17 360 0.0 0.0 0.00 0.00 0.08 78 1010.2
20260509170007 17 360 0.0 0.0 0.00 0.00 0.00 74 1010.1
20260509164506 17 172 0.0 0.0 0.00 0.00 0.00 72 1009.9
20260509163004 17 172 0.0 0.0 0.00 0.00 0.00 76 1009.3
20260509161504 17 360 0.0 0.0 0.00 0.00 0.00 75 1009.0
20260509160004 18 160 0.0 0.0 0.00 0.00 0.00 75 1009.2
20260509154612 18 360 0.0 0.0 0.00 0.00 0.00 74 1009.6
20260509153109 18 360 0.0 0.0 0.00 0.00 0.00 74 1009.7
20260509151604 18 140 0.0 0.0 0.00 0.00 0.00 73 1010.0
20260509150041 18 139 0.0 0.0 0.00 0.00 0.00 73 1010.5
20260509144540 18 136 0.0 0.0 0.00 0.00 0.00 73 1010.3
20260509143042 18 137 0.0 0.0 0.00 0.00 0.00 70 1010.4
20260509141545 18 190 0.0 0.0 0.00 0.00 0.00 63 1010.4
20260509140039 19 238 0.0 0.0 0.00 0.00 0.00 66 1010.3
20260509134540 20 360 0.0 0.0 0.00 0.00 0.00 64 1010.4
20260509133051 20 250 0.0 0.0 0.00 0.00 0.00 68 1010.6
20260509131535 20 360 0.0 0.0 0.00 0.00 0.00 68 1010.9
20260509130025 20 360 0.0 0.0 0.00 0.00 0.00 70 1010.9
20260509124521 20 253 0.0 0.0 0.00 0.00 0.00 69 1011.4
20260509123020 20 360 0.0 0.0 0.00 0.00 0.00 70 1011.9
20260509121522 20 240 0.0 0.0 0.00 0.00 0.00 70 1012.0
20260509120023 20 360 0.0 0.0 0.00 0.00 0.00 71 1011.9
20260509114520 20 253 0.0 0.0 0.00 0.00 0.00 71 1011.6
20260509113019 20 244 0.0 0.0 0.00 0.00 0.00 73 1011.8
20260509111518 20 360 0.0 0.0 0.00 0.00 0.00 73 1012.1
20260509110001 20 224 0.0 0.0 0.00 0.00 0.00 73 1012.1
20260509104611 20 360 0.0 0.0 0.00 0.00 0.00 73 1012.5
20260509103100 20 212 0.0 0.0 0.00 0.00 0.00 72 1012.4
20260509101549 20 360 0.0 0.0 0.00 0.00 0.00 73 1012.4
20260509100048 20 209 0.0 0.0 0.00 0.00 0.00 72 1012.3
20260509094547 20 360 0.0 0.0 0.00 0.00 0.00 72 1012.2
20260509093047 20 360 0.0 0.0 0.00 0.00 0.00 72 1011.7
20260509091547 19 360 0.0 0.0 0.00 0.00 0.00 75 1011.6
20260509090053 19 360 0.0 0.0 0.00 0.00 0.00 78 1011.8
20260509084545 18 360 0.0 0.0 0.00 0.00 0.00 81 1012.1
20260509083032 18 360 0.0 0.0 0.00 0.00 0.00 84 1012.0
20260509081546 17 360 0.0 0.0 0.00 0.00 0.00 85 1012.2
20260509080032 17 360 0.0 0.0 0.00 0.00 0.00 87 1012.3
20260509074531 16 360 0.0 0.0 0.00 0.00 0.00 87 1012.3
20260509073042 16 360 0.0 0.0 0.00 0.00 0.00 88 1012.4
20260509071539 16 360 0.0 0.0 0.00 0.00 0.00 88 1012.3
20260509070039 15 360 0.0 0.0 0.00 0.00 0.00 88 1012.4
20260509064531 15 360 0.0 0.0 0.00 0.00 0.00 88 1012.4